Location: Feudal
(51.8839°N, 107.6105°W)
Time: 12:02:17
(UTC+00:00)

Envisat - Pass Details

Date: 20 January 2022
Orbit: 764 x 765 km, 98.2° (Epoch: 22 May)

Event Time Altitude Azimuth Distance (km) Brightness Sun altitude
Rises 11:19:54 0° 21° (NNE) 3,243 6.6 -34.3°
Reaches altitude 10° 11:22:29 10° 32° (NNE) 2,312 5.9 -33.9°
Maximum altitude 11:26:58 30° 94° (E) 1,338 4.7 -33.2°
Drops below altitude 10° 11:31:25 10° 155° (SSE) 2,297 5.6 -32.5°
Sets 11:33:58 0° 166° (SSE) 3,219 6.3 -32.1°
